When you browse on this site, cookies collect data to enhance your experience and personalize the content and advertising you see.
Visit our Privacy Policy to learn more. By continuing to use the site, you agree to this use of cookies and data.
  • In Latvia
  • List of Countries
  • For 7 days
  • Water Temperature
  • Satellite Maps
  • Weather Map
  • Weather Widgets
  • user-avatar
    Login

    Hourly Weather Ischgl

    Today, 25 March, Monday

    Time Temperature Precipitation Wind Pressure Humidity
    00:00 -2°C° 0 mm 1 mps 572 mmHg 97%
    01:00 -2°C° 0 mm 1 mps 572 mmHg 97%
    02:00 -3°C° 0 mm 1 mps 571 mmHg 97%
    03:00 -3°C° 0 mm 1 mps 571 mmHg 97%
    04:00 -5°C° 0 mm 2 mps 571 mmHg 97%
    05:00 -5°C° 0.1 mm 2 mps 571 mmHg 96%
    06:00 -5°C° 0.1 mm 2 mps 571 mmHg 96%
    07:00 -5°C° 0.1 mm 2 mps 571 mmHg 96%
    08:00 -5°C° 0.1 mm 2 mps 571 mmHg 94%
    09:00 -4°C° 0.1 mm 2 mps 571 mmHg 93%
    10:00 -4°C° 0.1 mm 3 mps 571 mmHg 91%
    11:00 -4°C° 0.2 mm 3 mps 571 mmHg 91%
    12:00 -4°C° 0.2 mm 3 mps 571 mmHg 91%
    13:00 -4°C° 0.2 mm 3 mps 570 mmHg 91%
    14:00 -5°C° 0.4 mm 3 mps 570 mmHg 90%
    15:00 -6°C° 0.4 mm 3 mps 569 mmHg 89%
    16:00 -6°C° 0.4 mm 3 mps 569 mmHg 88%
    17:00 -8°C° 0.8 mm 3 mps 569 mmHg 90%
    18:00 -9°C° 0.8 mm 3 mps 569 mmHg 92%
    19:00 -10°C° 0.8 mm 3 mps 568 mmHg 94%
    20:00 -12°C° 0.5 mm 3 mps 569 mmHg 94%
    21:00 -12°C° 0.5 mm 3 mps 569 mmHg 94%
    22:00 -13°C° 0.5 mm 3 mps 569 mmHg 94%
    23:00 -13°C° 0.3 mm 3 mps 569 mmHg 94%

    Tomorrow, 26 March, Tuesday

    Time Temperature Precipitation Wind Pressure Humidity
    00:00 -14°C° 0.3 mm 3 mps 570 mmHg 94%
    01:00 -14°C° 0.3 mm 3 mps 570 mmHg 94%
    02:00 -14°C° 0.2 mm 3 mps 570 mmHg 94%
    03:00 -14°C° 0.2 mm 3 mps 570 mmHg 94%
    04:00 -14°C° 0.2 mm 3 mps 570 mmHg 94%
    05:00 -15°C° 0.1 mm 3 mps 570 mmHg 94%
    06:00 -15°C° 0.1 mm 3 mps 570 mmHg 94%
    07:00 -15°C° 0.1 mm 3 mps 570 mmHg 94%
    08:00 -14°C° 0 mm 3 mps 571 mmHg 89%
    09:00 -13°C° 0 mm 3 mps 572 mmHg 85%
    10:00 -12°C° 0 mm 3 mps 573 mmHg 80%
    11:00 -10°C° 0 mm 3 mps 573 mmHg 80%
    12:00 -9°C° 0 mm 3 mps 573 mmHg 79%
    13:00 -8°C° 0 mm 3 mps 574 mmHg 78%
    14:00 -8°C° 0 mm 3 mps 573 mmHg 78%
    15:00 -8°C° 0 mm 3 mps 573 mmHg 78%
    16:00 -8°C° 0 mm 3 mps 573 mmHg 78%
    17:00 -10°C° 0 mm 3 mps 573 mmHg 83%
    18:00 -10°C° 0 mm 2 mps 572 mmHg 88%
    19:00 -13°C° 0 mm 2 mps 572 mmHg 93%
    20:00 -13°C° 0 mm 2 mps 572 mmHg 94%
    21:00 -12°C° 0 mm 1 mps 572 mmHg 94%
    22:00 -12°C° 0 mm 1 mps 572 mmHg 95%
    23:00 -13°C° 0 mm 1 mps 572 mmHg 94%

    Day after tomorrow, 27 March, Wednesday

    Time Temperature Precipitation Wind Pressure Humidity
    00:00 -14°C° 0 mm 1 mps 571 mmHg 92%
    01:00 -15°C° 0 mm 1 mps 571 mmHg 91%
    02:00 -15°C° 0 mm 1 mps 571 mmHg 88%
    03:00 -14°C° 0 mm 1 mps 570 mmHg 86%
    04:00 -14°C° 0 mm 1 mps 570 mmHg 83%
    05:00 -13°C° 0 mm 1 mps 571 mmHg 83%
    06:00 -12°C° 0 mm 1 mps 572 mmHg 83%
    07:00 -11°C° 0 mm 1 mps 573 mmHg 83%
    08:00 -10°C° 0 mm 2 mps 574 mmHg 81%
    09:00 -9°C° 0 mm 2 mps 574 mmHg 79%
    10:00 -8°C° 0 mm 2 mps 575 mmHg 77%
    11:00 -7°C° 0 mm 2 mps 575 mmHg 80%
    12:00 -7°C° 0 mm 3 mps 575 mmHg 83%
    13:00 -7°C° 0 mm 3 mps 576 mmHg 86%
    14:00 -7°C° 0.1 mm 3 mps 575 mmHg 85%
    15:00 -7°C° 0.1 mm 3 mps 575 mmHg 85%
    16:00 -7°C° 0.1 mm 3 mps 575 mmHg 84%
    17:00 -7°C° 0 mm 2 mps 575 mmHg 87%
    18:00 -8°C° 0 mm 2 mps 575 mmHg 91%
    19:00 -9°C° 0 mm 2 mps 575 mmHg 94%
    20:00 -10°C° 0 mm 2 mps 575 mmHg 94%
    21:00 -10°C° 0 mm 1 mps 574 mmHg 93%
    22:00 -11°C° 0 mm 1 mps 574 mmHg 93%
    23:00 -11°C° 0 mm 1 mps 574 mmHg 91%

    28 March, Thursday

    Time Temperature Precipitation Wind Pressure Humidity
    00:00 -12°C° 0 mm 1 mps 574 mmHg 88%
    01:00 -12°C° 0 mm 1 mps 574 mmHg 86%
    02:00 -12°C° 0 mm 1 mps 574 mmHg 82%
    03:00 -12°C° 0 mm 1 mps 574 mmHg 78%
    04:00 -12°C° 0 mm 1 mps 574 mmHg 74%
    05:00 -12°C° 0 mm 1 mps 574 mmHg 72%
    06:00 -11°C° 0 mm 1 mps 574 mmHg 69%
    07:00 -11°C° 0 mm 1 mps 575 mmHg 67%
    08:00 -8°C° 0 mm 1 mps 576 mmHg 66%
    09:00 -6°C° 0 mm 1 mps 577 mmHg 65%
    10:00 -2°C° 0 mm 1 mps 578 mmHg 64%
    11:00 -1°C° 0 mm 1 mps 578 mmHg 68%
    12:00 -1°C° 0 mm 1 mps 578 mmHg 73%
    13:00 0°C° 0 mm 1 mps 578 mmHg 77%
    14:00 0°C° 0 mm 1 mps 578 mmHg 78%
    15:00 -2°C° 0 mm 2 mps 578 mmHg 79%
    16:00 -2°C° 0 mm 2 mps 578 mmHg 81%
    17:00 -3°C° 0 mm 2 mps 578 mmHg 85%
    18:00 -3°C° 0 mm 1 mps 577 mmHg 88%
    19:00 -4°C° 0 mm 1 mps 577 mmHg 92%
    20:00 -6°C° 0 mm 1 mps 577 mmHg 92%
    21:00 -7°C° 0 mm 1 mps 577 mmHg 92%
    22:00 -7°C° 0 mm 1 mps 577 mmHg 91%
    23:00 -8°C° 0 mm 1 mps 576 mmHg 89%

    29 March, Friday

    Time Temperature Precipitation Wind Pressure Humidity
    00:00 -9°C° 0 mm 2 mps 576 mmHg 87%
    01:00 -9°C° 0 mm 2 mps 576 mmHg 84%
    02:00 -9°C° 0 mm 2 mps 576 mmHg 84%
    03:00 -9°C° 0 mm 2 mps 576 mmHg 84%
    04:00 -9°C° 0 mm 2 mps 576 mmHg 84%
    05:00 -9°C° 0 mm 2 mps 576 mmHg 84%
    06:00 -9°C° 0 mm 2 mps 577 mmHg 84%
    07:00 -8°C° 0 mm 2 mps 577 mmHg 84%
    08:00 -6°C° 0 mm 2 mps 578 mmHg 82%
    09:00 -2°C° 0 mm 1 mps 579 mmHg 79%
    10:00 0°C° 0 mm 1 mps 579 mmHg 76%
    11:00 0°C° 0 mm 1 mps 580 mmHg 76%
    12:00 +1°C° 0 mm 1 mps 580 mmHg 75%
    13:00 +2°C° 0 mm 1 mps 580 mmHg 74%
    14:00 +2°C° 0 mm 1 mps 579 mmHg 73%
    15:00 +1°C° 0 mm 0 mps 579 mmHg 73%
    16:00 +1°C° 0 mm 0 mps 579 mmHg 72%
    17:00 -1°C° 0 mm 0 mps 578 mmHg 73%
    18:00 -3°C° 0 mm 0 mps 577 mmHg 74%
    19:00 -5°C° 0 mm 0 mps 576 mmHg 75%
    20:00 -4°C° 0 mm 1 mps 576 mmHg 72%
    21:00 -4°C° 0 mm 1 mps 577 mmHg 70%
    22:00 -6°C° 0 mm 1 mps 577 mmHg 68%
    23:00 -6°C° 0 mm 1 mps 577 mmHg 67%

    30 March, Saturday

    Time Temperature Precipitation Wind Pressure Humidity
    00:00 -6°C° 0 mm 1 mps 576 mmHg 66%
    01:00 -6°C° 0 mm 1 mps 576 mmHg 64%
    02:00 -7°C° 0 mm 1 mps 576 mmHg 63%
    03:00 -7°C° 0 mm 1 mps 576 mmHg 62%
    04:00 -7°C° 0 mm 1 mps 576 mmHg 61%
    05:00 -7°C° 0 mm 1 mps 576 mmHg 60%
    06:00 -6°C° 0 mm 1 mps 576 mmHg 59%
    07:00 -6°C° 0 mm 1 mps 576 mmHg 58%
    08:00 -4°C° 0 mm 0 mps 577 mmHg 59%
    09:00 -2°C° 0 mm 0 mps 578 mmHg 59%
    10:00 +1°C° 0 mm 0 mps 579 mmHg 60%
    11:00 +1°C° 0 mm 0 mps 579 mmHg 60%
    12:00 +2°C° 0 mm 0 mps 578 mmHg 59%
    13:00 +3°C° 0 mm 0 mps 578 mmHg 59%
    14:00 +3°C° 0 mm 0 mps 578 mmHg 60%
    15:00 +2°C° 0 mm 0 mps 578 mmHg 61%
    16:00 +3°C° 0 mm 1 mps 577 mmHg 63%
    17:00 +1°C° 0 mm 1 mps 576 mmHg 68%
    18:00 -1°C° 0 mm 1 mps 575 mmHg 73%
    19:00 -3°C° 0 mm 1 mps 574 mmHg 79%
    20:00 -3°C° 0 mm 1 mps 574 mmHg 80%
    21:00 -5°C° 0 mm 0 mps 574 mmHg 82%
    22:00 -5°C° 0 mm 0 mps 574 mmHg 84%
    23:00 -5°C° 0 mm 0 mps 574 mmHg 85%
    Show more